Alamosa, CO

9:23 AM MDT on June 28, 2017 (GMT -0600)
San Luis Valley Regional / Bergman Field

Weather History for KALS - April, 2013

Change the Weather History Date:

Thursday, April 18, 2013

  Actual Average Record
Temperature  
Mean Temperature 23 °F 42 °F  
Max Temperature 38 °F 60 °F 74 °F (2001)
Min Temperature 8 °F 25 °F 8 °F (2013)
Degree Days  
Heating Degree Days 42 23  
Month to date heating degree days 434 449  
Since 1 July heating degree days 8180 7755  
Cooling Degree Days 0 0  
Month to date cooling degree days 0 0  
Year to date cooling degree days 0 0  
Moisture  
Dew Point 9 °F    
Average Humidity 56    
Maximum Humidity 92    
Minimum Humidity 19    
Precipitation  
Precipitation 0.05 in 0.02 in 0.42 in (1942)
Month to date precipitation 0.28 0.34  
Year to date precipitation 0.84 1.39  
Snow  
Snow 0.70 in 0.10 in 4.80 in (1998)
Month to date snowfall 2.2 2.4  
Since 1 July snowfall 21.1 25.5  
Snow Depth 1.00 in    
Sea Level Pressure  
Sea Level Pressure 30.02 in    
Wind  
Wind Speed 14 mph (North)    
Max Wind Speed 25 mph    
Max Gust Speed 35 mph    
Visibility 8 miles    
Events Fog , Snow    
T = Trace of Precipitation, MM = Missing Value Source: NWS Daily Summary

Daily Weather History Graph

Daily Weather History Graph

Search for Another Location

Airport or City:

Trip Planner

Search our weather history database for the weather conditions in past years. The results will help you decide how hot, cold, wet, or windy it might be!

Date:

Astronomy

Apr. 18, 2013 Rise Set
Actual Time 6:24 AM MDT 7:41 PM MDT
Civil Twilight 5:57 AM MDT 8:09 PM MDT
Nautical Twilight 5:24 AM MDT 8:41 PM MDT
Astronomical Twilight 4:50 AM MDT 9:15 PM MDT
Moon 12:39 PM MDT (4/18) 1:56 AM MDT (4/18)
Length of Visible Light 14h 11m
Length of Day
13h 17m
First Quarter, 52% of the Moon is Illuminated
Apr 18
First Quarter
Apr 25
Full
May 2
Last Quarter
May 9
New
May 17
First Quarter

Hourly Weather History & Observations

Time (MDT) Temp. Windchill Dew Point Humidity Pressure Visibility Wind Dir Wind Speed Gust Speed Precip Events Conditions
12:20 AM 23.0 °F 12.4 °F 19.4 °F 86% 29.89 in 1.5 mi ENE 10.4 mph - 0.00 in Snow Light Snow
12:43 AM 21.2 °F 8.3 °F 19.4 °F 93% 29.90 in 2.5 mi NE 13.8 mph - 0.01 in Snow Light Snow
12:47 AM 21.2 °F 10.1 °F 19.4 °F 93% 29.90 in 4.0 mi NE 10.4 mph - 0.01 in Snow Light Snow
12:52 AM 21.9 °F 10.4 °F 19.9 °F 92% 29.86 in 2.5 mi NNE 11.5 mph - 0.01 in Snow Light Snow
1:02 AM 21.2 °F 10.1 °F 19.4 °F 93% 29.90 in 1.2 mi NE 10.4 mph - 0.00 in Snow Light Snow
1:22 AM 21.2 °F 13.6 °F 19.4 °F 93% 29.91 in 1.0 mi NE 5.8 mph - 0.01 in Snow Light Snow
1:39 AM 21.2 °F 11.7 °F 19.4 °F 93% 29.91 in 0.5 mi NE 8.1 mph - 0.02 in Fog , Snow Snow
1:52 AM 21.0 °F 14.6 °F 19.0 °F 92% 29.90 in 1.2 mi NE 4.6 mph - 0.04 in Snow Light Snow
1:58 AM 21.2 °F 14.9 °F 17.6 °F 86% 29.92 in 3.0 mi ENE 4.6 mph - 0.00 in Snow Light Snow
2:14 AM 21.2 °F - 17.6 °F 86% 29.91 in 7.0 mi Calm Calm - 0.00 in Snow Light Snow
2:32 AM 21.2 °F - 19.4 °F 93% 29.91 in 9.0 mi Calm Calm - 0.00 in   Overcast
2:52 AM 19.0 °F 12.3 °F 17.1 °F 92% 29.93 in 8.0 mi ENE 4.6 mph - 0.00 in   Overcast
3:52 AM 16.0 °F 4.4 °F 12.9 °F 88% 29.93 in 10.0 mi NNE 9.2 mph - N/A   Overcast
4:52 AM 16.0 °F - 12.9 °F 88% 29.94 in 7.0 mi Calm Calm - 0.00 in Snow Light Snow
5:52 AM 10.9 °F 1.4 °F 9.0 °F 92% 29.98 in 10.0 mi ENE 5.8 mph - 0.00 in   Mostly Cloudy
6:52 AM 19.0 °F 11.1 °F 10.9 °F 71% 29.96 in 10.0 mi North 5.8 mph - N/A   Overcast
7:52 AM 21.0 °F 10.6 °F 10.0 °F 63% 29.99 in 10.0 mi North 9.2 mph - N/A   Overcast
8:52 AM 23.0 °F 9.2 °F 6.1 °F 48% 30.05 in 10.0 mi NNW 17.3 mph 23.0 mph N/A   Partly Cloudy
9:52 AM 25.0 °F 13.6 °F 9.0 °F 51% 30.06 in 10.0 mi NNW 12.7 mph 23.0 mph N/A   Scattered Clouds
10:52 AM 26.1 °F 14.5 °F 8.1 °F 47% 30.07 in 10.0 mi North 13.8 mph 21.9 mph N/A   Mostly Cloudy
11:52 AM 33.1 °F 22.2 °F 6.1 °F 32% 30.01 in 10.0 mi NNW 17.3 mph 24.2 mph N/A   Partly Cloudy
12:52 PM 35.1 °F 23.3 °F 1.9 °F 25% 30.01 in 10.0 mi NW 23.0 mph 31.1 mph N/A   Partly Cloudy
1:52 PM 35.1 °F 24.5 °F -0.0 °F 23% 30.01 in 10.0 mi NW 18.4 mph 29.9 mph N/A   Mostly Cloudy
2:52 PM 37.0 °F 26.4 °F -2.0 °F 19% 30.01 in 10.0 mi NW 20.7 mph 27.6 mph N/A   Scattered Clouds
3:52 PM 36.0 °F 25.6 °F -2.9 °F 19% 30.04 in 10.0 mi NNW 18.4 mph 25.3 mph N/A   Scattered Clouds
4:52 PM 35.1 °F 24.8 °F -2.0 °F 21% 30.06 in 10.0 mi NW 17.3 mph 31.1 mph N/A   Scattered Clouds
5:52 PM 35.1 °F 23.0 °F -0.9 °F 22% 30.12 in 10.0 mi NNW 24.2 mph 32.2 mph N/A   Clear
6:52 PM 32.0 °F 19.8 °F -0.9 °F 24% 30.12 in 10.0 mi NNW 20.7 mph 31.1 mph N/A   Clear
7:52 PM 28.9 °F 17.3 °F -0.0 °F 29% 30.17 in 10.0 mi NNW 16.1 mph 27.6 mph N/A   Clear
8:52 PM 27.0 °F 15.2 °F 1.9 °F 34% 30.21 in 10.0 mi NNW 15.0 mph 24.2 mph N/A   Clear
9:52 PM 25.0 °F 12.6 °F 1.9 °F 37% 30.25 in 10.0 mi NW 15.0 mph - N/A   Clear
10:52 PM 24.1 °F 13.1 °F 3.0 °F 40% 30.27 in 10.0 mi NNW 11.5 mph - N/A   Clear
11:52 PM 23.0 °F 9.6 °F 3.0 °F 42% 30.26 in 10.0 mi North 16.1 mph 25.3 mph N/A   Clear